Regional Weather Roundup
Issued by NWS

Home | Current Version | Previous Version | Text Only | Print | Product List | Glossary Off
Versions: 1 2 3 4 5 6 7 8 9 10 11 12 13 14 15 16 17 18 19 20 21 22 23 24 25 26 27 28 29 30 31 32 33 34 35 36 37 38 39 40 41 42 43 44 45 46 47 48 49 50

000
ASUS43 KMKX 312221
RWRWI

WISCONSIN REGIONAL WEATHER ROUNDUP
NATIONAL WEATHER SERVICE MILWAUKEE/SULLIVAN WI
500 PM CDT WED AUG 31 2016

NOTE: "FAIR" INDICATES FEW OR NO CLOUDS BELOW 12,000 FEET WITH NO
SIGNIFICANT WEATHER AND/OR OBSTRUCTIONS TO VISIBILITY.

WIZ001-002-006>008-014>016-023>028-312300-
NORTHWEST WISCONSIN

CITY           SKY/WX    TMP DP  RH WIND       PRES   REMARKS
SUPERIOR ARPT  PTSUNNY   73  53  49 NE6       30.17S
ASHLAND        PTSUNNY   70  55  59 N10       30.19S
HAYWARD        MOSUNNY   73  51  46 N8        30.18S
SIREN          SUNNY     75  49  40 N7        30.17F
CUMBERLAND     SUNNY     72  46  40 N9        30.17F
RICE LAKE      PTSUNNY   71  52  50 NW3       30.18F
CHETEK         NOT AVBL
LADYSMITH      MOSUNNY   73  54  50 N9        30.18F
EAU CLAIRE     MOSUNNY   77  52  41 NW10      30.14S
MENOMONIE      SUNNY     77  49  37 N8        30.16S
NEW RICHMOND   SUNNY     76  49  39 NW8       30.17F
OSCEOLA        SUNNY     76  52  43 N5        30.19F
$$

WIZ003>005-009-010-017-018-312300-
NORTH CENTRAL WISCONSIN

CITY           SKY/WX    TMP DP  RH WIND       PRES   REMARKS
MANITOWISH WTR NOT AVBL
ARBOR VITAE    PTSUNNY   71  54  54 N10       30.18F
WOODRUFF       PTSUNNY   71  54  54 N10       30.18F
RHINELANDER    CLOUDY    69  53  56 N7        30.18S
EAGLE RIVER    CLOUDY    66  50  55 N9        30.18S
LAND O LAKES   CLOUDY    65  51  60 N9        30.20S
PHILLIPS       MOSUNNY   69  55  60 NE12      30.17S
TOMAHAWK       PTSUNNY   70  52  52 N9        30.18R
MEDFORD        MOSUNNY   70  53  54 N8G16     30.16S
MERRILL        MOSUNNY   72  55  54 N13       30.16R
$$

WIZ029-030-035-036-043>047-312300-
CENTRAL WISCONSIN

CITY           SKY/WX    TMP DP  RH WIND       PRES   REMARKS
WAUSAU         PTSUNNY   74  51  44 N9        30.13S
MOSINEE        MOSUNNY   73  52  46 NW9       30.15S
MARSHFIELD     PTSUNNY   77  52  41 N12       30.14S
STEVENS POINT  MOSUNNY   71  51  49 N6        30.14S
WAUPACA        MOSUNNY   78  51  39 NW5       30.12S
WAUTOMA        PTSUNNY   75  55  49 NE7       30.11F
WISC RAPIDS    MOSUNNY   78  53  41 N9        30.14F
CAMP DOUGLAS   MOSUNNY   77  55  47 NW8       30.12S
$$

WIZ011>013-019>022-031-037>040-048>050-312300-
NORTHEAST WISCONSIN

CITY           SKY/WX    TMP DP  RH WIND       PRES   REMARKS
ANTIGO         CLOUDY    71  55  57 N13       30.15S
SHAWANO        PTSUNNY   74  54  48 NE6       30.12S
OCONTO         NOT AVBL
STURGEON BAY   CLOUDY    70  58  65 N8        30.12S
GREEN BAY      MOSUNNY   74  57  55 N8        30.10F
MANITOWOC      MOSUNNY   73  55  53 MISG      30.10F
APPLETON       PTSUNNY   72  52  49 N9        30.10F
CLINTONVILLE   PTSUNNY   73  50  43 N7        30.11S
OSHKOSH        PTSUNNY   74  55  51 NE9       30.10F
$$

WIZ032>034-041-042-053>061-312300-
SOUTHWEST WISCONSIN

CITY           SKY/WX    TMP DP  RH WIND       PRES   REMARKS
LA CROSSE      SUNNY     79  54  41 N9        30.12F
SPARTA         SUNNY     76  54  45 N7        30.14S
VIROQUA        SUNNY     74  55  50 N8        30.14F
BOSCOBEL       SUNNY     80  55  42 N8        30.11F HX  80
PRAIRIE DU CHI SUNNY     76  52  42 N8        30.11S
PLATTEVILLE    SUNNY     75  58  56 N8        30.12S
$$

WIZ056-057-062-063-064-067-068-312300-
SOUTH CENTRAL WISCONSIN

CITY           SKY/WX    TMP DP  RH WIND       PRES   REMARKS
REEDSBURG      NOT AVBL
BARABOO/DELLS  MOSUNNY   77  50  38 NW8       30.12S
LONE ROCK      SUNNY     77  55  46 N8        30.11F
MINERAL POINT  SUNNY     77  52  41 N8        30.12S
MADISON        PTSUNNY   77  54  44 N12       30.10S
MIDDLETON      SUNNY     77  53  43 N8        30.11S
WATERTOWN      MOSUNNY   74  54  49 N14       30.09S
MONROE         SUNNY     73  52  46 N13       30.10F
JANESVILLE     MOSUNNY   77  54  44 N10       30.09S
$$

WIZ051-052-058>065-066-070>072-312300-
SOUTHEAST WISCONSIN

CITY           SKY/WX    TMP DP  RH WIND       PRES   REMARKS
MILWAUKEE      MOSUNNY   73  56  54 NE12      30.10R
WAUKESHA       MOSUNNY   70  54  56 NE12      30.11R
MILWAUKEE/TIMM SUNNY     72  50  46 NE10      30.10F
RACINE         SUNNY     73  57  57 NE13      30.11R
BURLINGTON     PTSUNNY   72  55  53 E12       30.09S
KENOSHA        SUNNY     73  56  54 NE14      30.10R
FOND DU LAC    MOSUNNY   75  55  49 NE10      30.11S
SHEBOYGAN      MOSUNNY   71  55  56 NE7       30.11S
WEST BEND      CLOUDY    72  54  53 N7        30.10S
JUNEAU         MOSUNNY   73  54  51 N7        30.12S
$$

LSZ147-162-312300-
LAKE SUPERIOR

STATION/POSITION TIME  TEMP    WIND        PRES    WAVE
                       AIR SEA DIR/SP/G            HT/PER
                 (UTC) (F)     (DEG/KT/KT) (MB)    (FT/S)
W MID LAKE BUOY  2150   67 69  320/  2/  4 1021.5S   1
DEVILS ISLAND    2200   67     300/  4/  5 1022.1R
PORT WING        2140   71      20/  5/  8 1022.0F
SAXON HARBOR     2140   69      40/  7/  9 1022.0S
$$

LMZ867-665-643>646-312300-
LAKE MICHIGAN

STATION/POSITION TIME  TEMP    WIND        PRES    WAVE
                       AIR SEA DIR/SP/G            HT/PER
                 (UTC) (F)     (DEG/KT/KT) (MB)    (FT/S)
CHAMBERS ISLAND  2100   70      10/ 16/ 19 1019.3S
S GREEN BAY BUOY 2200   72 74   40/  2/  4 1019.1
N MID LAKE BUOY  2150   69 71  310/ 12/ 16 1018.4S   2/ 4
NORTHPORT PIER   2100   69     350/ 12/ 16 1019.3S
SISTER BAY       2022   72     360/ 13/ 18   N/A
KEWAUNEE LAKESHO 2100   70     150/  2/  3 1019.0F
SHEBOYGAN LAKESH 2200   67      40/  6/  8 1019.0F
PORT WASHINGTON  2100   70      40/  6/  7 1020.0
ATWATER BUOY     2200   69      40/ 12/ 16   N/A
MILWAUKEE LAKESH 2110   68      30/  9/ 10   N/A
S MID LAKE BUOY  2150   71 74   10/ 21/ 25 1017.1R   5/ 6
KENOSHA   LAKESH 2200   69      10/ 14/ 15 1018.6S
$$

TC  - TEMPERATURE IN CELSIUS
VSB - VISIBILITY IN STATUTE MILES
WCI - WIND CHILL INDEX
HX  - HEAT INDEX





USA.gov is the U.S. government's official web portal to all federal, state and local government web resources and services.